Coatesville, PA

8:49 PM EST on November 22, 2019 (GMT -0500)
Chester County Carlson

Weather History for KMQS - September, 2019

Change the Weather History Date:

Friday, September 13, 2019

  Actual Average (KILG) Record (KILG)
Temperature  
Mean Temperature 62 °F -  
Max Temperature 66 °F 79 °F 95 °F (1952)
Min Temperature 59 °F 58 °F 46 °F (1958)
Degree Days  
Heating Degree Days 2    
Growing Degree Days 12 (Base 50)    
Moisture  
Dew Point 56 °F    
Average Humidity 81    
Maximum Humidity 100    
Minimum Humidity 64    
Precipitation  
Precipitation 0.03 in - - ()
Sea Level Pressure  
Sea Level Pressure 30.39 in    
Wind  
Wind Speed 10 mph ()    
Max Wind Speed 18 mph    
Max Gust Speed 25 mph    
Visibility 9.5 miles    
Events Rain    
Averages and records for this station are not official NWS values.
T = Trace of Precipitation, MM = Missing Value Source: Averaged Metar Reports

Daily Weather History Graph

Daily Weather History Graph

Search for Another Location

Airport or City:

Astronomy

Sep. 13, 2019 Rise Set
Actual Time 6:42 AM EDT 7:15 PM EDT
Civil Twilight 6:15 AM EDT 7:43 PM EDT
Nautical Twilight 5:42 AM EDT 8:15 PM EDT
Astronomical Twilight 5:09 AM EDT 8:48 PM EDT
Moon 7:28 PM EDT (9/13) 5:57 AM EDT (9/13)
Length of Visible Light 13h 27m
Length of Day
12h 33m
Full, 100% of the Moon is Illuminated
Sep 13
Full
Sep 14
Full
Sep 21
Last Quarter
Sep 28
New
Oct 5
First Quarter

Hourly Weather History & Observations

Time (EDT) Temp. Dew Point Humidity Pressure Visibility Wind Dir Wind Speed Gust Speed Precip Events Conditions
12:15 AM 64.4 °F 64.4 °F 100% 30.26 in 2.0 mi East 15.0 mph 20.7 mph N/A Rain Light Rain
12:35 AM 64.4 °F 64.4 °F 100% 30.27 in 10.0 mi East 12.7 mph 23.0 mph N/A   Overcast
12:55 AM 64.4 °F 64.4 °F 100% 30.28 in 10.0 mi East 6.9 mph 19.6 mph 0.01 in   Overcast
1:15 AM 64.4 °F 62.6 °F 94% 30.27 in 10.0 mi East 11.5 mph 18.4 mph N/A   Overcast
1:35 AM 64.4 °F 62.6 °F 94% 30.29 in 2.5 mi ESE 12.7 mph - N/A Rain Light Rain
1:55 AM 62.6 °F 62.6 °F 100% 30.29 in 1.5 mi ESE 10.4 mph - 0.01 in Rain Light Rain
2:35 AM 62.6 °F 62.6 °F 100% 30.29 in 6.0 mi East 9.2 mph 23.0 mph N/A   Mist
2:55 AM 62.6 °F 62.6 °F 100% 30.29 in 1.8 mi East 13.8 mph - 0.01 in Rain Light Rain
3:15 AM 60.8 °F 59.0 °F 94% 30.31 in 10.0 mi East 11.5 mph 20.7 mph N/A   Overcast
3:35 AM 60.8 °F 59.0 °F 94% 30.31 in 10.0 mi East 8.1 mph 15.0 mph N/A   Overcast
3:55 AM 60.8 °F 59.0 °F 94% 30.32 in 10.0 mi East 10.4 mph - N/A   Overcast
4:15 AM 60.8 °F 59.0 °F 94% 30.32 in 10.0 mi ENE 9.2 mph 15.0 mph N/A   Overcast
4:35 AM 60.8 °F 59.0 °F 94% 30.33 in 10.0 mi ENE 10.4 mph 18.4 mph N/A   Overcast
4:55 AM 60.8 °F 59.0 °F 94% 30.33 in 10.0 mi East 10.4 mph - N/A   Overcast
5:15 AM 60.8 °F 59.0 °F 94% 30.34 in 10.0 mi East 15.0 mph 20.7 mph N/A   Unknown
5:35 AM 60.8 °F 59.0 °F 94% 30.34 in 10.0 mi East 15.0 mph 23.0 mph N/A   Overcast
5:55 AM 60.8 °F 57.2 °F 88% 30.35 in 10.0 mi East 12.7 mph 21.9 mph N/A   Overcast
6:15 AM 60.8 °F 57.2 °F 88% 30.36 in 10.0 mi East 13.8 mph 25.3 mph N/A   Overcast
6:35 AM 60.8 °F 57.2 °F 88% 30.36 in 10.0 mi East 9.2 mph 19.6 mph N/A   Overcast
6:55 AM 59.0 °F 55.4 °F 88% 30.37 in 10.0 mi East 15.0 mph 23.0 mph N/A   Overcast
7:15 AM 59.0 °F 55.4 °F 88% 30.37 in 10.0 mi East 18.4 mph - N/A   Overcast
7:35 AM 59.0 °F 55.4 °F 88% 30.39 in 10.0 mi East 15.0 mph 21.9 mph N/A   Overcast
7:55 AM 60.8 °F 55.4 °F 82% 30.39 in 10.0 mi East 13.8 mph 23.0 mph N/A   Overcast
8:15 AM 60.8 °F 55.4 °F 82% 30.40 in 10.0 mi ENE 9.2 mph 19.6 mph N/A   Overcast
8:35 AM 60.8 °F 55.4 °F 82% 30.41 in 10.0 mi ENE 8.1 mph 19.6 mph N/A   Overcast
8:55 AM 60.8 °F 55.4 °F 82% 30.41 in 10.0 mi East 16.1 mph - N/A   Overcast
9:15 AM 60.8 °F 55.4 °F 82% 30.42 in 10.0 mi East 13.8 mph - N/A   Overcast
9:35 AM 60.8 °F 55.4 °F 82% 30.43 in 10.0 mi East 10.4 mph 21.9 mph N/A   Overcast
9:55 AM 60.8 °F 55.4 °F 82% 30.43 in 10.0 mi East 16.1 mph 24.2 mph N/A   Overcast
10:15 AM 60.8 °F 55.4 °F 82% 30.43 in 10.0 mi ENE 11.5 mph 21.9 mph N/A   Overcast
10:35 AM 60.8 °F 55.4 °F 82% 30.43 in 10.0 mi East 16.1 mph 24.2 mph N/A   Overcast
10:55 AM 60.8 °F 55.4 °F 82% 30.44 in 10.0 mi East 11.5 mph - N/A   Overcast
11:15 AM 62.6 °F 57.2 °F 82% 30.44 in 10.0 mi East 10.4 mph 19.6 mph N/A   Overcast
11:35 AM 62.6 °F 55.4 °F 77% 30.44 in 10.0 mi East 10.4 mph 20.7 mph N/A   Overcast
11:55 AM 62.6 °F 55.4 °F 77% 30.44 in 10.0 mi East 12.7 mph 24.2 mph N/A   Overcast
12:15 PM 62.6 °F 55.4 °F 77% 30.44 in 10.0 mi East 15.0 mph 21.9 mph N/A   Overcast
12:55 PM 62.6 °F 57.2 °F 82% 30.45 in 10.0 mi East 10.4 mph 18.4 mph N/A   Overcast
1:15 PM 62.6 °F 57.2 °F 82% 30.44 in 10.0 mi ESE 10.4 mph - N/A   Overcast
1:35 PM 62.6 °F 57.2 °F 82% 30.44 in 10.0 mi ESE 6.9 mph 13.8 mph N/A   Overcast
1:55 PM 64.4 °F 57.2 °F 77% 30.44 in 10.0 mi East 9.2 mph 17.3 mph N/A   Overcast
2:15 PM 64.4 °F 57.2 °F 77% 30.44 in 10.0 mi ESE 10.4 mph 19.6 mph N/A   Overcast
2:35 PM 64.4 °F 55.4 °F 73% 30.44 in 10.0 mi East 12.7 mph 18.4 mph N/A   Mostly Cloudy
2:55 PM 64.4 °F 55.4 °F 73% 30.44 in 10.0 mi ESE 9.2 mph 15.0 mph N/A   Mostly Cloudy
3:15 PM 64.4 °F 55.4 °F 73% 30.43 in 10.0 mi Variable 5.8 mph 12.7 mph N/A   Unknown
3:35 PM 66.2 °F 55.4 °F 68% 30.43 in 10.0 mi ESE 5.8 mph - N/A   Overcast
3:55 PM 66.2 °F 55.4 °F 68% 30.43 in 10.0 mi ESE 6.9 mph - N/A   Overcast
4:15 PM 66.2 °F 53.6 °F 64% 30.42 in 10.0 mi ESE 9.2 mph 16.1 mph N/A   Overcast
4:35 PM 66.2 °F 53.6 °F 64% 30.42 in 10.0 mi ESE 11.5 mph - N/A   Overcast
5:15 PM 66.2 °F 53.6 °F 64% 30.43 in 10.0 mi ESE 8.1 mph - N/A   Overcast
5:35 PM 66.2 °F 53.6 °F 64% 30.42 in 10.0 mi ESE 9.2 mph 15.0 mph N/A   Mostly Cloudy
6:15 PM 64.4 °F 53.6 °F 68% 30.42 in 10.0 mi ESE 8.1 mph 15.0 mph N/A   Overcast
6:35 PM 64.4 °F 53.6 °F 68% 30.42 in 10.0 mi SE 9.2 mph - N/A   Overcast
6:55 PM 64.4 °F 53.6 °F 68% 30.41 in 10.0 mi ESE 5.8 mph - N/A   Overcast
7:15 PM 64.4 °F 53.6 °F 68% 30.41 in 10.0 mi ESE 6.9 mph - N/A   Overcast
7:35 PM 62.6 °F 53.6 °F 72% 30.42 in 10.0 mi ESE 5.8 mph - N/A   Mostly Cloudy
7:55 PM 62.6 °F 55.4 °F 77% 30.42 in 10.0 mi ESE 8.1 mph - N/A   Mostly Cloudy
8:15 PM 62.6 °F 53.6 °F 72% 30.42 in 10.0 mi Variable 6.9 mph - N/A   Mostly Cloudy
8:35 PM 62.6 °F 53.6 °F 72% 30.42 in 10.0 mi ESE 6.9 mph 13.8 mph N/A   Overcast
8:55 PM 62.6 °F 53.6 °F 72% 30.42 in 10.0 mi ESE 8.1 mph - N/A   Mostly Cloudy
9:15 PM 62.6 °F 53.6 °F 72% 30.42 in 10.0 mi ESE 6.9 mph 13.8 mph N/A   Mostly Cloudy
9:35 PM 62.6 °F 53.6 °F 72% 30.42 in 10.0 mi ESE 6.9 mph - N/A   Scattered Clouds
9:55 PM 60.8 °F 53.6 °F 77% 30.43 in 10.0 mi ESE 4.6 mph - N/A   Mostly Cloudy
10:15 PM 60.8 °F 53.6 °F 77% 30.42 in 10.0 mi ESE 5.8 mph - N/A   Mostly Cloudy
10:35 PM 60.8 °F 53.6 °F 77% 30.41 in 10.0 mi ESE 4.6 mph - N/A   Mostly Cloudy
10:55 PM 60.8 °F 53.6 °F 77% 30.41 in 10.0 mi Variable 4.6 mph - N/A   Mostly Cloudy
11:35 PM 60.8 °F 53.6 °F 77% 30.41 in 10.0 mi Calm Calm - N/A   Mostly Cloudy
11:55 PM 60.8 °F 53.6 °F 77% 30.41 in 10.0 mi SE 3.5 mph - N/A   Overcast